Statesville, NC

11:55 PM EST on November 14, 2019 (GMT -0500)
Statesville Municipal

Weather History for KSVH - October, 2019

Change the Weather History Date:

Tuesday, October 22, 2019

  Actual Average (KHKY) Record (KHKY)
Temperature  
Mean Temperature 63 °F -  
Max Temperature 71 °F 69 °F 83 °F (1949)
Min Temperature 54 °F 44 °F 28 °F (1974)
Degree Days  
Heating Degree Days 2    
Growing Degree Days 13 (Base 50)    
Moisture  
Dew Point 61 °F    
Average Humidity 91    
Maximum Humidity 97    
Minimum Humidity 53    
Precipitation  
Precipitation 0.06 in - - ()
Sea Level Pressure  
Sea Level Pressure 29.92 in    
Wind  
Wind Speed 3 mph (SSE)    
Max Wind Speed 9 mph    
Max Gust Speed -    
Visibility 10 miles    
Events Rain    
Averages and records for this station are not official NWS values.
T = Trace of Precipitation, MM = Missing Value Source: NWS Daily Summary

Daily Weather History Graph

Daily Weather History Graph

Search for Another Location

Airport or City:

Astronomy

Oct. 22, 2019 Rise Set
Actual Time 7:36 AM EDT 6:39 PM EDT
Civil Twilight 7:10 AM EDT 7:05 PM EDT
Nautical Twilight 6:40 AM EDT 7:35 PM EDT
Astronomical Twilight 6:10 AM EDT 8:05 PM EDT
Moon 1:01 AM EDT (10/22) 3:32 PM EDT (10/22)
Length of Visible Light 11h 55m
Length of Day
11h 03m
Last Quarter, 37% of the Moon is Illuminated
Oct 22
Last Quarter
Oct 27
New
Nov 4
First Quarter
Nov 12
Full
Nov 19
Last Quarter

Hourly Weather History & Observations

Time (EDT) Temp. Dew Point Humidity Pressure Visibility Wind Dir Wind Speed Gust Speed Precip Events Conditions
12:15 AM 63.5 °F 61.7 °F 94% 30.02 in 10.0 mi Calm Calm - N/A   Overcast
12:35 AM 63.5 °F 61.9 °F 94% 30.02 in 10.0 mi Calm Calm - N/A   Overcast
12:55 AM 63.5 °F 61.7 °F 94% 30.00 in 10.0 mi East 4.6 mph - N/A   Overcast
1:15 AM 63.5 °F 61.3 °F 93% 30.01 in 10.0 mi Calm Calm - N/A   Mostly Cloudy
1:35 AM 63.5 °F 61.5 °F 93% 29.99 in 10.0 mi East 3.5 mph - N/A   Overcast
1:55 AM 62.8 °F 61.2 °F 94% 29.98 in 10.0 mi Calm Calm - N/A   Mostly Cloudy
2:15 AM 63.0 °F 61.3 °F 94% 29.97 in 10.0 mi Calm Calm - N/A   Mostly Cloudy
2:35 AM 63.0 °F 61.5 °F 95% 29.97 in 10.0 mi Calm Calm - N/A   Overcast
2:55 AM 63.3 °F 61.7 °F 94% 29.96 in 10.0 mi Calm Calm - N/A   Overcast
3:15 AM 63.7 °F 62.1 °F 94% 29.97 in 10.0 mi SE 3.5 mph - N/A   Overcast
3:35 AM 63.9 °F 62.2 °F 94% 29.95 in 10.0 mi SE 8.1 mph - N/A   Light Drizzle
3:55 AM 63.7 °F 62.1 °F 94% 29.93 in 10.0 mi SE 5.8 mph - N/A Rain Rain
4:15 AM 63.5 °F 61.9 °F 94% 29.92 in 10.0 mi SE 9.2 mph - N/A   Overcast
4:35 AM 63.5 °F 61.7 °F 94% 29.92 in 10.0 mi SE 6.9 mph - N/A   Overcast
4:55 AM 63.5 °F 61.7 °F 94% 29.93 in 10.0 mi SSE 4.6 mph - N/A   Overcast
5:15 AM 63.5 °F 61.5 °F 93% 29.92 in 10.0 mi SE 6.9 mph - N/A   Overcast
5:35 AM 63.5 °F 61.7 °F 94% 29.92 in 10.0 mi SE 5.8 mph - N/A Rain Rain
5:55 AM 63.5 °F 61.9 °F 94% 29.91 in 10.0 mi SE 5.8 mph - N/A   Overcast
6:15 AM 63.5 °F 61.9 °F 94% 29.92 in 10.0 mi SSE 3.5 mph - N/A Rain Rain
6:35 AM 63.5 °F 62.2 °F 96% 29.92 in 10.0 mi SE 6.9 mph - 0.01 in Rain Rain
6:55 AM 63.5 °F 62.2 °F 96% 29.90 in 10.0 mi SE 6.9 mph - 0.04 in Rain Light Rain
7:15 AM 63.5 °F 62.6 °F 97% 29.89 in 7.0 mi SE 6.9 mph - 0.01 in   Light Drizzle
7:35 AM 63.5 °F 62.6 °F 97% 29.89 in 10.0 mi SE 5.8 mph - 0.01 in   Overcast
7:55 AM 63.7 °F 62.8 °F 97% 29.89 in 10.0 mi SSE 5.8 mph - 0.01 in Rain Light Rain
8:35 AM 64.4 °F 63.1 °F 96% 29.89 in 10.0 mi SSE 4.6 mph - N/A   Drizzle
8:55 AM 64.4 °F 63.5 °F 97% 29.88 in 10.0 mi SSE 8.1 mph - 0.01 in   Light Drizzle
9:15 AM 64.4 °F 63.5 °F 97% 29.88 in 7.0 mi SE 5.8 mph - N/A Rain Rain
9:35 AM 64.4 °F 63.5 °F 97% 29.88 in 7.0 mi South 4.6 mph - N/A   Overcast
9:55 AM 64.8 °F 63.9 °F 97% 29.87 in 10.0 mi SSE 5.8 mph - N/A   Overcast
10:15 AM 65.5 °F 64.6 °F 97% 29.87 in 10.0 mi South 4.6 mph - N/A   Overcast
1:15 PM 67.3 °F 64.9 °F 92% 29.82 in 10.0 mi West 6.9 mph - N/A   Overcast
1:35 PM 68.2 °F 65.1 °F 90% 29.82 in 10.0 mi West 6.9 mph - N/A   Overcast
1:55 PM 68.9 °F 64.8 °F 87% 29.81 in 10.0 mi West 6.9 mph - N/A   Overcast
2:15 PM 70.5 °F 65.8 °F 85% 29.80 in 10.0 mi WNW 4.6 mph - N/A   Overcast
2:35 PM 71.8 °F 65.5 °F 80% 29.80 in 10.0 mi West 4.6 mph - N/A   Scattered Clouds
10:55 PM 55.2 °F 41.0 °F 59% 29.94 in 10.0 mi WNW 5.8 mph - N/A   Clear
11:15 PM 57.4 °F 40.3 °F 53% 29.94 in 10.0 mi WNW 5.8 mph - N/A   Clear
11:35 PM 54.9 °F 43.0 °F 64% 29.95 in 10.0 mi West 4.6 mph - N/A   Clear